Weather History for KCKN - September, 2013

Change the Weather History Date:

Tuesday, September 10, 2013

  Actual Average Record
Temperature  
Mean Temperature 66 °F -  
Max Temperature 75 °F 70 °F 91 °F (1998)
Min Temperature 57 °F 48 °F 42 °F (2006)
Cooling Degree Days 1    
Growing Degree Days 16 (Base 50)    
Moisture  
Dew Point 60 °F    
Average Humidity 81    
Maximum Humidity 100    
Minimum Humidity 50    
Precipitation  
Precipitation 0.00 in - - ()
Sea Level Pressure  
Sea Level Pressure 29.86 in    
Wind  
Wind Speed 5 mph (West)    
Max Wind Speed 12 mph    
Max Gust Speed 16 mph    
Visibility 8 miles    
Events Fog    
Averages and records for this station are not official NWS values.
T = Trace of Precipitation, MM = Missing Value Source: NWS Daily Summary

Daily Weather History Graph

Daily Weather History Graph

Search for Another Location

Airport or City:

Trip Planner

Search our weather history database for the weather conditions in past years. The results will help you decide how hot, cold, wet, or windy it might be!

Date:

Astronomy

Sep. 10, 2013 Rise Set
Actual Time 6:57 AM CDT 7:48 PM CDT
Civil Twilight 6:25 AM CDT 8:19 PM CDT
Nautical Twilight 5:48 AM CDT 8:57 PM CDT
Astronomical Twilight 5:08 AM CDT 9:36 PM CDT
Moon 12:50 PM CDT (9/10) 10:25 PM CDT (9/10)
Length of Visible Light 13h 53m
Length of Day
12h 51m
Waxing Crescent, 28% of the Moon is Illuminated
Sep 10
Waxing Crescent
Sep 12
First Quarter
Sep 19
Full
Sep 26
Last Quarter
Oct 4
New

Hourly Weather History & Observations

Time (CDT) Temp. Dew Point Humidity Pressure Visibility Wind Dir Wind Speed Gust Speed Precip Events Conditions
12:14 AM 64.4 °F 62.6 °F 94% 29.80 in 7.0 mi WNW 6.9 mph - N/A   Overcast
12:35 AM 64.4 °F 62.6 °F 94% 29.79 in 7.0 mi WNW 4.6 mph - N/A   Overcast
12:54 AM 64.4 °F 62.6 °F 94% 29.78 in 10.0 mi Calm Calm - N/A   Mostly Cloudy
1:14 AM 62.6 °F 60.8 °F 94% 29.79 in 10.0 mi Calm Calm - N/A   Scattered Clouds
1:35 AM 60.8 °F 60.8 °F 100% 29.79 in 7.0 mi NW 3.5 mph - N/A   Scattered Clouds
1:54 AM 60.8 °F 60.8 °F 100% 29.78 in 7.0 mi Calm Calm - N/A   Scattered Clouds
2:14 AM 60.8 °F 59.0 °F 94% 29.78 in 4.0 mi SW 4.6 mph - N/A   Scattered Clouds
2:35 AM 60.8 °F 60.8 °F 100% 29.78 in 3.0 mi SW 4.6 mph - N/A   Mostly Cloudy
2:54 AM 60.8 °F 60.8 °F 100% 29.79 in 3.0 mi SW 4.6 mph - N/A   Mostly Cloudy
3:15 AM 62.6 °F 60.8 °F 94% 29.79 in 3.0 mi Calm Calm - N/A   Overcast
3:35 AM 62.6 °F 60.8 °F 94% 29.80 in 3.0 mi Calm Calm - N/A   Overcast
3:54 AM 62.6 °F 60.8 °F 94% 29.80 in 3.0 mi Calm Calm - N/A   Mostly Cloudy
4:15 AM 62.6 °F 60.8 °F 94% 29.81 in 3.0 mi Calm Calm - N/A   Mostly Cloudy
4:34 AM 60.8 °F 60.8 °F 100% 29.81 in 3.0 mi Calm Calm - N/A   Mostly Cloudy
4:54 AM 60.8 °F 60.8 °F 100% 29.81 in 1.8 mi Calm Calm - N/A   Mostly Cloudy
5:15 AM 60.8 °F 60.8 °F 100% 29.82 in 0.8 mi Calm Calm - N/A   Overcast
5:34 AM 60.8 °F 60.8 °F 100% 29.82 in 1.0 mi SSW 4.6 mph - N/A   Overcast
5:54 AM 60.8 °F 60.8 °F 100% 29.82 in 4.0 mi SSW 4.6 mph - N/A   Mostly Cloudy
6:14 AM 60.8 °F 59.0 °F 94% 29.83 in 0.5 mi WSW 3.5 mph - N/A Fog Fog
6:34 AM 59.0 °F 57.2 °F 94% 29.83 in 1.5 mi WSW 4.6 mph - N/A   Mostly Cloudy
6:55 AM 57.2 °F 57.2 °F 100% 29.84 in 7.0 mi West 3.5 mph - N/A   Clear
7:14 AM 57.2 °F 57.2 °F 100% 29.84 in 10.0 mi West 4.6 mph - N/A   Clear
7:35 AM 57.2 °F 57.2 °F 100% 29.85 in 10.0 mi NW 5.8 mph - N/A   Clear
7:55 AM 57.2 °F 57.2 °F 100% 29.85 in 10.0 mi WNW 4.6 mph - N/A   Scattered Clouds
8:14 AM 59.0 °F 57.2 °F 94% 29.84 in 10.0 mi Calm Calm - N/A   Mostly Cloudy
8:35 AM 60.8 °F 59.0 °F 94% 29.85 in 10.0 mi NW 8.1 mph - N/A   Mostly Cloudy
8:54 AM 60.8 °F 59.0 °F 94% 29.85 in 10.0 mi NW 5.8 mph - N/A   Overcast
9:14 AM 60.8 °F 60.8 °F 100% 29.85 in 10.0 mi NW 4.6 mph - N/A   Overcast
9:35 AM 62.6 °F 60.8 °F 94% 29.86 in 10.0 mi NW 4.6 mph - N/A   Overcast
9:54 AM 62.6 °F 62.6 °F 100% 29.86 in 10.0 mi NW 3.5 mph - N/A   Mostly Cloudy
10:14 AM 64.4 °F 62.6 °F 94% 29.87 in 10.0 mi NW 5.8 mph - N/A   Scattered Clouds
10:35 AM 66.2 °F 62.6 °F 88% 29.88 in 10.0 mi NNW 5.8 mph - N/A   Scattered Clouds
10:54 AM 68.0 °F 62.6 °F 83% 29.88 in 10.0 mi NW 8.1 mph - N/A   Scattered Clouds
11:15 AM 68.0 °F 60.8 °F 78% 29.88 in 10.0 mi NNW 6.9 mph - N/A   Scattered Clouds
11:35 AM 68.0 °F 59.0 °F 73% 29.89 in 10.0 mi NW 10.4 mph - N/A   Scattered Clouds
11:54 AM 69.8 °F 59.0 °F 68% 29.89 in 10.0 mi WNW 9.2 mph - N/A   Scattered Clouds
12:15 PM 71.6 °F 57.2 °F 60% 29.89 in 10.0 mi NW 8.1 mph - N/A   Scattered Clouds
12:34 PM 69.8 °F 57.2 °F 64% 29.90 in 10.0 mi NW 9.2 mph - N/A   Mostly Cloudy
12:54 PM 69.8 °F 57.2 °F 64% 29.90 in 10.0 mi NW 6.9 mph - N/A   Mostly Cloudy
1:15 PM 71.6 °F 57.2 °F 60% 29.90 in 10.0 mi NW 5.8 mph - N/A   Scattered Clouds
1:34 PM 71.6 °F 57.2 °F 60% 29.90 in 10.0 mi NW 6.9 mph - N/A   Scattered Clouds
1:54 PM 71.6 °F 55.4 °F 57% 29.90 in 10.0 mi WNW 6.9 mph - N/A   Clear
2:15 PM 73.4 °F 55.4 °F 53% 29.90 in 10.0 mi West 3.5 mph - N/A   Scattered Clouds
2:34 PM 73.4 °F 55.4 °F 53% 29.90 in 10.0 mi WNW 8.1 mph - N/A   Scattered Clouds
2:54 PM 73.4 °F 55.4 °F 53% 29.90 in 10.0 mi West 9.2 mph - N/A   Clear
3:15 PM 73.4 °F 57.2 °F 57% 29.90 in 10.0 mi SW 6.9 mph - N/A   Clear
3:34 PM 73.4 °F 57.2 °F 57% 29.90 in 10.0 mi WSW 5.8 mph 16.1 mph N/A   Scattered Clouds
3:54 PM 75.2 °F 57.2 °F 53% 29.90 in 10.0 mi West 8.1 mph - N/A   Scattered Clouds
4:14 PM 73.4 °F 57.2 °F 57% 29.89 in 10.0 mi WSW 6.9 mph 12.7 mph N/A   Scattered Clouds
4:35 PM 73.4 °F 57.2 °F 57% 29.89 in 10.0 mi WSW 9.2 mph - N/A   Clear
4:54 PM 75.2 °F 55.4 °F 50% 29.89 in 10.0 mi West 10.4 mph - N/A   Clear
5:14 PM 75.2 °F 57.2 °F 53% 29.89 in 10.0 mi WSW 10.4 mph - N/A   Clear
5:35 PM 75.2 °F 59.0 °F 57% 29.89 in 10.0 mi WSW 11.5 mph - N/A   Clear
5:54 PM 75.2 °F 59.0 °F 57% 29.88 in 10.0 mi WSW 10.4 mph - N/A   Clear
6:14 PM 75.2 °F 59.0 °F 57% 29.88 in 10.0 mi WSW 10.4 mph - N/A   Clear
6:35 PM 75.2 °F 60.8 °F 61% 29.88 in 10.0 mi WSW 9.2 mph - N/A   Clear
6:54 PM 73.4 °F 60.8 °F 65% 29.88 in 10.0 mi WSW 8.1 mph - N/A   Clear
7:14 PM 71.6 °F 60.8 °F 69% 29.89 in 10.0 mi SW 6.9 mph - N/A   Clear
7:35 PM 69.8 °F 60.8 °F 73% 29.88 in 10.0 mi SW 5.8 mph - N/A   Clear
7:54 PM 69.8 °F 60.8 °F 73% 29.89 in 10.0 mi SSW 6.9 mph - N/A   Clear
8:15 PM 68.0 °F 60.8 °F 78% 29.89 in 10.0 mi SSW 8.1 mph - N/A   Clear
8:34 PM 68.0 °F 60.8 °F 78% 29.90 in 10.0 mi SSW 8.1 mph - N/A   Clear
8:54 PM 68.0 °F 60.8 °F 78% 29.90 in 10.0 mi SSW 9.2 mph - N/A   Clear
9:15 PM 66.2 °F 60.8 °F 83% 29.90 in 10.0 mi SSW 6.9 mph - N/A   Clear
9:34 PM 66.2 °F 60.8 °F 83% 29.90 in 10.0 mi South 6.9 mph - N/A   Clear
9:54 PM 66.2 °F 60.8 °F 83% 29.90 in 10.0 mi SSW 8.1 mph - N/A   Clear
10:15 PM 66.2 °F 60.8 °F 83% 29.90 in 10.0 mi SW 8.1 mph - N/A   Clear
10:34 PM 64.4 °F 60.8 °F 88% 29.89 in 10.0 mi SSW 9.2 mph - N/A   Clear
10:54 PM 64.4 °F 60.8 °F 88% 29.89 in 10.0 mi SSW 9.2 mph - N/A   Clear
11:15 PM 62.6 °F 60.8 °F 94% 29.89 in 10.0 mi SW 8.1 mph - N/A   Clear
11:34 PM 62.6 °F 60.8 °F 94% 29.89 in 10.0 mi SSW 8.1 mph - N/A   Clear
11:54 PM 62.6 °F 60.8 °F 94% 29.89 in 10.0 mi SW 4.6 mph - N/A   Clear